Content
SEND FEEDBACK

Daily
Averages
Monthly
Summary
United States of America

LEXINGTON PARK, MARYLAND


Home > North America > United States > Maryland
Elevation: 39 feet     Latitude: 38 17N     Longitude: 076 25W

WEATHER
 
SELECT A DAY
Number of Records: 68,831;   Date Range: 1/1/95 - 9/22/14
 
SHARE

PRINT THIS DATA

[ ← Previous Day ]
WEATHER ALMANAC - FEBRUARY 5, 2013
[ Next Day → ]
[ °C ]   °F
Weather ElementAverageHighLow
Temperature40.3 °F46.9 °F (10:52 am)32 °F (11:52 pm)
Dewpoint27.5 °F30.9 °F (11:52 am)23 °F (1:52 am)
Humidity61.9 %88 % (11:52 pm)47 % (1:52 am)
Barometer29.89 in29.93 in (9:52 am)29.86 in (5:14 am)
Wind Speed5.5 mph10.4 mph (1:52 am)
Weather ElementAverage
Visibility9.2 mi
Wind DirectionSSE (173.8 °)

Weather ElementTotal
Precipitation---
Heating Degree Days25.6 (Base 65)
Averaged from 24 records on February 5, 2013
WEATHER CONDITIONS BREAKOUT
WIND DIRECTION BREAKOUT
WEATHER BY HOUR - FEBRUARY 5, 2013
[ °C ]   °F
Local TimeTemperatureDewpointHumidityBarometerVisibilityWind DirectionWind SpeedGust SpeedPrecipitationEventsConditions
1:52 AM42.1 °F23.0 °F47 %29.90 in10.0 miSSW (200°)10.4 mph0.00 inOvercast
2:52 AM41.0 °F24.1 °F51 %29.90 in10.0 miSSW (210°)8.1 mphPartly Cloudy
3:52 AM41.0 °F24.1 °F51 %29.88 in10.0 miSouth (190°)5.8 mphMostly Cloudy
4:52 AM41.0 °F24.1 °F51 %29.87 in10.0 miSouth (190°)6.9 mphPartly Cloudy
5:14 AM41.0 °F24.8 °F53 %29.86 in10.0 miSouth (190°)5.8 mphScattered Clouds
5:52 AM41.0 °F24.1 °F51 %29.88 in10.0 miSSW (200°)6.9 mphScattered Clouds
6:52 AM41.0 °F25.0 °F53 %29.88 in10.0 miSouth (190°)4.6 mphMostly Cloudy
7:52 AM41.0 °F26.1 °F55 %29.89 in10.0 miSW (220°)4.6 mphMostly Cloudy
8:52 AM43.0 °F27.0 °F53 %29.91 in10.0 miWSW (250°)4.6 mphMostly Cloudy
9:52 AM45.0 °F28.0 °F52 %29.93 in10.0 miNNW (330°)5.8 mphMostly Cloudy
10:52 AM46.9 °F28.0 °F48 %29.91 in10.0 miWNW (300°)5.8 mphMostly Cloudy
11:52 AM44.1 °F30.9 °F60 %29.91 in10.0 miNNE (30°)8.1 mphMostly Cloudy
12:52 PM44.1 °F30.0 °F58 %29.89 in10.0 miNNE (30°)5.8 mphOvercast
1:52 PM43.0 °F28.9 °F58 %29.86 in10.0 miNNE (20°)9.2 mphMostly Cloudy
2:52 PM43.0 °F28.0 °F56 %29.86 in10.0 miNNE (20°)9.2 mphOvercast
3:52 PM42.1 °F27.0 °F55 %29.86 in10.0 miNorth (360°)6.9 mphOvercast
4:52 PM39.9 °F30.0 °F68 %29.87 in10.0 miNNE (20°)4.6 mphOvercast
5:52 PM37.0 °F30.0 °F76 %29.87 in10.0 miCalmMostly Cloudy
6:52 PM37.9 °F30.0 °F73 %29.89 in10.0 miNW (320°)5.8 mphMostly Cloudy
7:52 PM37.0 °F30.9 °F79 %29.89 in8.0 miWNW (300°)3.5 mphMostly Cloudy
8:52 PM35.1 °F30.0 °F82 %29.90 in7.0 miNW (310°)3.5 mphClear
9:52 PM34.0 °F28.9 °F82 %29.91 in6.0 miVariable3.5 mphHaze
10:52 PM33.1 °F28.9 °F85 %29.92 in6.0 miWNW (290°)3.5 mphPartly Cloudy
11:52 PM32.0 °F28.9 °F88 %29.93 in4.0 miCalmClear
Hourly data recorded from KNHK, located miles away from Lexington Park, Maryland







STORIES FROM OUR PARTNERS